Weather reports worldwide

Advertisment
Catania/Fontanarossa, Italy (16460): temperature & dewpoint: 25.09.2020 00:00:00 - 01.10.2020 00:00:00 (CEST)Catania/Fontanarossa, Italy (16460): wind speed: 25.09.2020 00:00:00 - 01.10.2020 00:00:00 (CEST)Catania/Fontanarossa, Italy (16460): wind direction: 25.09.2020 00:00:00 - 01.10.2020 00:00:00 (CEST)Catania/Fontanarossa, Italy (16460): reduced air pressure: 25.09.2020 00:00:00 - 01.10.2020 00:00:00 (CEST)Catania/Fontanarossa, Italy (16460): visibility: 25.09.2020 00:00:00 - 01.10.2020 00:00:00 (CEST)Catania/Fontanarossa, Italy (16460): precipitation: 25.09.2020 00:00:00 - 01.10.2020 00:00:00 (CEST)
Date & Time tt [°C] td [°C] ff [km/h] ff [kn] dd ppp [hPa] vv [km] rr [mm]
01.10.2020 00:00:00 23,0 18,0 5 3 NNE - 10 -
30.09.2020 23:00:00 23,0 18,3 8 4 ENE 1013,5 10 0,0
30.09.2020 22:00:00 23,0 18,0 9 5 NE - 10 -
30.09.2020 21:00:00 23,0 18,0 13 7 NE - 10 -
30.09.2020 20:00:00 23,3 18,0 15 8 ENE 1013,1 10 -
30.09.2020 19:00:00 23,0 18,0 15 8 NE - 10 -
30.09.2020 18:00:00 24,0 17,0 18 10 ENE - 10 -
30.09.2020 17:00:00 23,9 17,7 16 9 E 1013,4 10 0,0
30.09.2020 16:00:00 24,0 17,0 16 9 E - 10 -
30.09.2020 15:00:00 25,0 17,0 21 11 ENE - 10 -
30.09.2020 14:00:00 25,3 17,0 15 8 ENE 1014,1 10 -
30.09.2020 13:00:00 25,0 17,0 15 8 E - 10 -
30.09.2020 12:00:00 25,0 16,0 5 3 - - 10 -
30.09.2020 11:00:00 23,6 15,9 8 4 WSW 1016,0 10 0,0
30.09.2020 10:00:00 22,0 17,0 11 6 SW - 10 -
30.09.2020 09:00:00 20,0 17,0 9 5 WSW - 10 -
30.09.2020 08:00:00 16,8 15,6 15 8 WSW 1016,4 10 -
30.09.2020 07:00:00 16,0 15,0 13 7 WSW - 10 -
30.09.2020 06:00:00 16,0 15,0 13 7 WSW - 10 -
30.09.2020 05:00:00 16,1 15,6 11 6 WSW 1016,1 10 0,0
30.09.2020 04:00:00 16,0 16,0 11 6 WSW - 10 -
30.09.2020 03:00:00 17,0 16,0 11 6 WSW - 10 -
30.09.2020 02:00:00 17,5 16,8 8 4 SSW 1017,3 10 -
30.09.2020 01:00:00 18,0 17,0 5 3 SW - 10 -
30.09.2020 00:00:00 19,0 17,0 9 5 W - 10 -
29.09.2020 23:00:00 20,8 17,8 4 2 - 1018,0 10 0,0
29.09.2020 22:00:00 19,0 17,0 9 5 WSW - 10 -
29.09.2020 21:00:00 21,0 18,0 4 2 SSE - 10 -
29.09.2020 20:00:00 21,6 17,7 5 3 E 1017,9 10 -
29.09.2020 19:00:00 22,0 18,0 11 6 E - 10 -
29.09.2020 18:00:00 23,0 18,0 13 7 E - 10 -
29.09.2020 17:00:00 23,6 17,7 16 9 E 1017,2 10 0,0
29.09.2020 16:00:00 24,0 18,0 21 11 ENE - 10 -
29.09.2020 15:00:00 23,0 18,0 26 14 ENE - 10 -
29.09.2020 14:00:00 24,2 16,6 18 10 N 1018,1 10 -
29.09.2020 13:00:00 27,0 14,0 26 14 W - 10 -
29.09.2020 12:00:00 26,0 13,0 26 14 WSW - 10 -
29.09.2020 11:00:00 24,9 13,0 28 15 WSW 1018,5 10 0,0
29.09.2020 10:00:00 22,0 15,0 29 16 W - 10 -
29.09.2020 09:00:00 20,0 15,0 29 16 WSW - 10 -
29.09.2020 08:00:00 17,7 14,4 18 10 WSW 1017,8 10 -
29.09.2020 07:00:00 17,0 14,0 16 9 W - 10 -
29.09.2020 06:00:00 - - - - - - - -
29.09.2020 05:00:00 16,5 13,7 13 7 W 1017,3 - 0,0
29.09.2020 04:00:00 17,0 13,0 11 6 W - 10 -
29.09.2020 03:00:00 17,0 13,0 15 8 W - 10 -
29.09.2020 02:00:00 16,9 13,0 16 9 WSW 1018,0 10 -
29.09.2020 01:00:00 18,0 13,0 16 9 WSW - 10 -
29.09.2020 00:00:00 18,0 14,0 18 10 WSW - 10 -
28.09.2020 23:00:00 18,3 13,1 15 8 W 1017,8 10 0,0
28.09.2020 22:00:00 19,0 13,0 13 7 W - 10 -
28.09.2020 21:00:00 19,0 12,0 13 7 W - 10 -
28.09.2020 20:00:00 20,7 11,9 11 6 W 1016,5 10 -
28.09.2020 19:00:00 22,0 11,0 13 7 W - 10 -
28.09.2020 18:00:00 25,0 10,0 22 12 W - 10 -
28.09.2020 17:00:00 25,5 9,1 21 11 W 1015,0 10 0,0
28.09.2020 16:00:00 26,0 9,0 28 15 WSW - 10 -
28.09.2020 15:00:00 26,0 8,0 29 16 W - 10 -
28.09.2020 14:00:00 25,1 7,7 26 14 W 1015,6 10 -
28.09.2020 13:00:00 25,0 10,0 24 13 W - 10 -
28.09.2020 12:00:00 24,0 12,0 24 13 W - 10 -
28.09.2020 11:00:00 22,2 13,2 24 13 WSW 1015,8 10 0,0
28.09.2020 10:00:00 20,0 13,0 18 10 W - 10 -
28.09.2020 09:00:00 18,0 14,0 16 9 W - 10 -
28.09.2020 08:00:00 16,0 13,0 16 9 WSW 1014,1 10 -
28.09.2020 07:00:00 16,0 13,0 22 12 W - 10 -
28.09.2020 06:00:00 15,0 12,0 18 10 W - 10 -
28.09.2020 05:00:00 16,6 12,3 18 10 W 1011,8 10 0,0
28.09.2020 04:00:00 16,0 14,0 18 10 W - 10 -
28.09.2020 03:00:00 16,0 14,0 8 4 W - 10 -
28.09.2020 02:00:00 16,7 14,7 15 8 WSW 1011,6 10 -
28.09.2020 01:00:00 17,0 16,0 8 4 WSW - 10 -
28.09.2020 00:00:00 19,0 18,0 9 5 S - 10 -
27.09.2020 23:00:00 18,9 17,8 13 7 SW 1009,4 10 0,0
27.09.2020 22:00:00 20,0 18,0 9 5 SW - 10 -
27.09.2020 21:00:00 20,0 19,0 9 5 N - 7 -
27.09.2020 20:00:00 20,7 19,2 5 3 NW 1009,0 10 -
27.09.2020 19:00:00 22,0 18,0 11 6 SW - 8 -
27.09.2020 18:00:00 25,0 15,0 15 8 S - 10 -
27.09.2020 17:00:00 25,4 12,9 22 12 S 1007,8 10 0,0
27.09.2020 16:00:00 26,0 13,0 13 7 S - 10 -
27.09.2020 15:00:00 26,0 13,0 21 11 SSW - 10 -
27.09.2020 14:00:00 24,8 12,8 16 9 W 1010,1 10 -
27.09.2020 13:00:00 24,0 13,0 11 6 WSW - 10 -
27.09.2020 12:00:00 23,0 12,0 13 7 W - 10 -
27.09.2020 11:00:00 22,8 11,6 16 9 W 1011,6 10 0,0
27.09.2020 10:00:00 21,0 11,0 15 8 WSW - 10 -
27.09.2020 09:00:00 18,0 11,0 13 7 SW - 10 -
27.09.2020 08:00:00 16,7 9,6 15 8 WSW 1010,9 10 -
27.09.2020 07:00:00 14,0 10,0 15 8 WSW - 10 -
27.09.2020 06:00:00 15,0 9,0 18 10 WSW - 10 -
27.09.2020 05:00:00 15,3 8,7 15 8 W 1010,0 10 0,0
27.09.2020 04:00:00 16,0 9,0 21 11 WSW - 10 -
27.09.2020 03:00:00 16,0 8,0 16 9 SW - 10 -
27.09.2020 02:00:00 17,4 7,7 13 7 W 1010,0 10 -
27.09.2020 01:00:00 18,0 9,0 15 8 W - 10 -
27.09.2020 00:00:00 19,0 9,0 13 7 W - 10 -
26.09.2020 23:00:00 19,9 8,4 21 11 W 1009,7 10 0,0
26.09.2020 22:00:00 21,0 7,0 21 11 W - 10 -
26.09.2020 21:00:00 21,0 8,0 24 13 W - 10 -
26.09.2020 20:00:00 21,8 8,2 16 9 W 1007,6 10 -
26.09.2020 19:00:00 23,0 6,0 22 12 W - 10 -
26.09.2020 18:00:00 24,0 6,0 29 16 W - 10 -
26.09.2020 17:00:00 24,5 6,7 35 19 W 1005,3 10 0,0
26.09.2020 16:00:00 25,0 6,0 44 24 W - 10 -
26.09.2020 15:00:00 26,0 4,0 42 23 W - 10 -
26.09.2020 14:00:00 25,6 4,6 44 24 W 1004,8 10 -
26.09.2020 13:00:00 26,0 6,0 44 24 W - 10 -
26.09.2020 12:00:00 24,0 7,0 44 24 WSW - 10 -
26.09.2020 11:00:00 23,3 8,0 39 21 W 1005,9 10 0,0
26.09.2020 10:00:00 23,0 8,0 41 22 W - 10 -
26.09.2020 09:00:00 22,0 10,0 31 17 W - 10 -
26.09.2020 08:00:00 20,6 10,1 29 16 WSW 1004,5 10 -
26.09.2020 07:00:00 20,0 10,0 21 11 WSW - 10 -
26.09.2020 06:00:00 21,0 11,0 22 12 WSW - 10 -
26.09.2020 05:00:00 21,2 11,0 24 13 W 1003,9 10 0,0
26.09.2020 04:00:00 23,0 10,0 31 17 WSW - 10 -
26.09.2020 03:00:00 24,0 12,0 28 15 WSW - 10 -
26.09.2020 02:00:00 25,1 11,6 31 17 WSW 1005,5 10 -
26.09.2020 01:00:00 26,0 12,0 37 20 W - 10 -
26.09.2020 00:00:00 27,0 15,0 26 14 W - 10 -
25.09.2020 23:00:00 26,7 16,6 21 11 WSW 1006,1 10 0,0
25.09.2020 22:00:00 26,0 16,0 15 8 SW - 10 -
25.09.2020 21:00:00 27,0 15,0 13 7 W - 10 -
25.09.2020 20:00:00 27,8 14,2 16 9 SW 1005,9 10 -
25.09.2020 19:00:00 30,0 16,0 15 8 SW - 10 -
25.09.2020 18:00:00 31,0 18,0 16 9 WSW - 10 -
25.09.2020 17:00:00 32,4 16,8 18 10 WSW 1006,0 10 0,0
25.09.2020 16:00:00 35,0 15,0 21 11 WSW - 10 -
25.09.2020 15:00:00 31,0 23,0 9 5 E - 10 -
25.09.2020 14:00:00 31,9 21,2 13 7 WSW 1008,3 10 -
25.09.2020 13:00:00 31,0 19,0 18 10 W - 10 -
25.09.2020 12:00:00 30,0 20,0 16 9 W - 10 -
25.09.2020 11:00:00 28,6 15,5 24 13 WSW 1011,4 10 0,0
25.09.2020 10:00:00 27,0 16,0 16 9 WSW - 10 -
25.09.2020 09:00:00 24,0 17,0 15 8 W - 10 -
25.09.2020 08:00:00 20,9 17,4 15 8 WSW 1012,1 10 -
25.09.2020 07:00:00 19,0 18,0 13 7 WSW - 10 -
25.09.2020 06:00:00 19,0 18,0 13 7 WSW - 10 -
25.09.2020 05:00:00 19,8 18,5 13 7 SW 1012,9 10 0,0
25.09.2020 04:00:00 20,0 19,0 11 6 WSW - 10 -
25.09.2020 03:00:00 21,0 19,0 13 7 SW - 10 -
25.09.2020 02:00:00 21,2 19,4 13 7 WSW 1014,1 10 -
25.09.2020 01:00:00 21,0 20,0 11 6 WSW - 10 -
25.09.2020 00:00:00 23,0 20,0 9 5 W - 10 -

tt = temperature
td = dewpoint
ff = wind speed
dd = wind direction
ppp = reduced air pressure
vv = visibility
rr = precipitation

Next stations